Location: Launois
(49.6535°N, 4.5395°E)
Time: 15:02:39
(UTC+00:00)

Cosmos 1455 - Pass Details

Date: 23 May 2024
Orbit: 445 x 460 km, 82.5° (Epoch: 16 June)

Event Time Altitude Azimuth Distance (km) Brightness Sun altitude
Rises 00:24:55 0° 359° (N) 2,461 7.2 -19.0°
Reaches altitude 10° 00:27:12 10° 12° (NNE) 1,585 5.9 -18.9°
Maximum altitude 00:30:11 27° 72° (ENE) 909 3.7 -18.8°
Enters shadow 00:31:55 18° 116° (ESE) 1,176 3.9 -18.7°
